This demonstration page uses our WeatherBlox Daily Observations layout. Learn more.

36.17497, -115.13722

Hourly Observations for April 20, 2015

Temp ( °F °C ) Dew Point ( °F °C ) Humidity (%) Winds ( mph kmh ) Pressure ( in mb ) Visibility ( mi km ) Precip ( " mm )
12:53 am 00:53 Clear 70 21.1 14 -10 11 11 Calm 29.77 1008 10 16.0934 0 0
1:53 am 01:53 Clear 67 19.4 20 -6.7 17 17 W 5 7 29.76 1008 10 16.0934 0 0
2:53 am 02:53 Clear 67 19.4 21 -6.1 17 17 Calm 29.76 1008 10 16.0934 0 0
3:53 am 03:53 Clear 65 18.3 15 -9.4 14 14 N 5 7 29.77 1008 10 16.0934 0 0
4:53 am 04:53 Clear 62 16.7 19 -7.2 19 19 N 5 7 29.77 1008 10 16.0934 0 0
5:53 am 05:53 Clear 62 16.7 15 -9.4 16 16 NNW 6 9 29.79 1009 10 16.0934 0 0
6:53 am 06:53 Sunny 63 17.2 18 -7.8 17 17 NW 6 9 29.81 1009 10 16.0934 0 0
7:53 am 07:53 Sunny 69 20.6 16 -8.9 13 13 NW 6 9 29.82 1010 10 16.0934 0 0
8:53 am 08:53 Sunny 73 22.8 16 -8.9 11 11 N 3 6 29.83 1010 10 16.0934 0 0
9:53 am 09:53 Sunny 76 24.4 14 -10 9 9 Calm 29.83 1010 10 16.0934 0 0
10:53 am 10:53 Sunny 79 26.1 11 -11.7 7 7 Calm 29.83 1010 10 16.0934 0 0
11:53 am 11:53 Sunny 81 27.2 10 -12.2 7 7 Calm 29.8 1009 10 16.0934 0 0
12:53 pm 12:53 Sunny 84 28.9 9 -12.8 6 6 undefined N/A 29.78 1008 10 16.0934 0 0
1:53 pm 13:53 Sunny 87 30.6 9 -12.8 5 5 undefined N/A 29.75 1008 10 16.0934 0 0
2:53 pm 14:53 Sunny 88 31.1 7 -13.9 4 4 VRB 5 7 29.71 1006 10 16.0934 0 0
3:53 pm 15:53 Sunny 88 31.1 5 -15 4 4 SW 7 11 29.69 1005 10 16.0934 0 0
4:53 pm 16:53 Sunny 87 30.6 6 -14.4 4 4 VRB 3 6 29.69 1005 10 16.0934 0 0
5:53 pm 17:53 Sunny 87 30.6 10 -12.2 5 5 SSW 9 15 29.67 1005 10 16.0934 0 0
6:53 pm 18:53 Sunny 85 29.4 9 -12.8 5 5 SSW 12 19 29.68 1005 10 16.0934 0 0
7:53 pm 19:53 Clear 82 27.8 13 -10.6 7 7 S 5 7 29.69 1005 10 16.0934 0 0
8:53 pm 20:53 Clear 80 26.7 16 -8.9 9 9 WNW 5 7 29.71 1006 10 16.0934 0 0
9:53 pm 21:53 Clear 77 25 15 -9.4 9 9 SSW 7 11 29.73 1007 10 16.0934 0 0
10:53 pm 22:53 Clear 76 24.4 13 -10.6 9 9 SSW 9 15 29.73 1007 10 16.0934 0 0
11:53 pm 23:53 Clear 74 23.3 14 -10 10 10 SW 7 11 29.74 1007 10 16.0934 0 0

Powered by AerisWeather